Location: Briarstone Lake
(43.1454°N, 93.2359°W)
Time: 01:30:56
(UTC+00:00)

Tiangong - Visible Passes

Search period start: 19 January 2026 00:00
Search period end: 29 January 2026 00:00
Orbit: 378 x 393 km, 41.5° (Epoch: 18 January)

Date Brightness Start Highest point End Pass type
(mag) Time Alt. Az. Time Alt. Az. Time Alt. Az.
19 Jan -0.3 11:57:05 20° SSW 11:58:25 28° SSE 12:01:13 10° E visible
20 Jan 1.1 11:00:51 14° ESE 11:00:51 14° ESE 11:01:34 10° ESE visible
20 Jan -1.5 12:33:06 14° WSW 12:35:43 52° S 12:38:51 10° E visible
21 Jan -0.9 11:36:43 39° SSE 11:36:43 39° SSE 11:39:26 10° E visible
22 Jan -1.9 12:12:26 32° WSW 12:13:43 62° S 12:16:52 10° E visible
23 Jan 0.2 11:15:51 25° ESE 11:15:51 25° ESE 11:17:24 10° E visible
23 Jan -1.8 12:48:04 11° W 12:51:01 60° S 12:54:10 10° ESE visible
24 Jan -2.1 11:51:24 63° SSW 11:51:32 65° S 11:54:43 10° E visible
25 Jan 1.2 10:54:41 14° E 10:54:41 14° E 10:55:12 10° E visible
25 Jan -1.5 12:26:54 20° W 12:28:45 48° SSW 12:31:51 10° ESE visible
26 Jan -0.9 11:30:08 39° SE 11:30:08 39° SE 11:32:23 10° ESE visible
27 Jan -1.1 12:05:35 30° SW 12:06:19 35° SSW 12:09:15 10° SE visible
28 Jan 0.6 11:08:49 18° SE 11:08:49 18° SE 11:09:50 10° ESE visible
28 Jan 0.1 12:41:09 10° WSW 12:43:11 16° SSW 12:45:12 10° SSE visible
